TimeAKST,TemperatureF,Dew PointF,Humidity,Sea Level PressureIn,VisibilityMPH,Wind Direction,Wind SpeedMPH,Gust SpeedMPH,PrecipitationIn,Events,Conditions,WindDirDegrees,DateUTC
12:56 AM,-0.9,-6.0,79,29.87,10.0,Calm,Calm,-,N/A,,Mostly Cloudy,0,2013-01-05 09:56:00
1:56 AM,1.9,-2.9,80,29.86,10.0,Calm,Calm,-,N/A,,Clear,0,2013-01-05 10:56:00
2:56 AM,-2.0,-6.0,83,29.83,10.0,Calm,Calm,-,N/A,,Mostly Cloudy,0,2013-01-05 11:56:00
3:56 AM,-2.9,-7.1,82,29.82,10.0,Calm,Calm,-,N/A,,Partly Cloudy,0,2013-01-05 12:56:00
4:56 AM,-2.9,-9.0,75,29.79,10.0,Calm,Calm,-,N/A,,Clear,0,2013-01-05 13:56:00
5:56 AM,-6.0,-11.0,79,29.77,10.0,Calm,Calm,-,N/A,,Clear,0,2013-01-05 14:56:00
6:56 AM,-8.0,-13.0,79,29.75,10.0,Calm,Calm,-,N/A,,Clear,0,2013-01-05 15:56:00
7:56 AM,-9.0,-14.1,79,29.72,10.0,Calm,Calm,-,N/A,,Clear,0,2013-01-05 16:56:00
8:56 AM,-8.0,-14.1,75,29.70,10.0,Calm,Calm,-,N/A,,Clear,0,2013-01-05 17:56:00
9:56 AM,-8.0,-13.0,79,29.68,10.0,Calm,Calm,-,N/A,,Clear,0,2013-01-05 18:56:00
10:56 AM,-9.0,-15.0,75,29.66,10.0,Calm,Calm,-,N/A,,Clear,0,2013-01-05 19:56:00
11:56 AM,-7.1,-11.9,79,29.63,10.0,Calm,Calm,-,N/A,,Clear,0,2013-01-05 20:56:00
12:56 PM,-6.0,-11.0,79,29.61,10.0,Calm,Calm,-,N/A,,Clear,0,2013-01-05 21:56:00
1:56 PM,-6.0,-9.9,83,29.58,10.0,Calm,Calm,-,N/A,,Clear,0,2013-01-05 22:56:00
2:56 PM,-2.9,-8.0,79,29.55,10.0,Calm,Calm,-,N/A,,Clear,0,2013-01-05 23:56:00
3:56 PM,-2.0,-7.1,79,29.55,10.0,Calm,Calm,-,N/A,,Clear,0,2013-01-06 00:56:00
4:56 PM,-4.0,-9.0,79,29.51,10.0,Calm,Calm,-,N/A,,Clear,0,2013-01-06 01:56:00
5:56 PM,-4.0,-9.0,79,29.50,10.0,NE,3.5,-,N/A,,Clear,50,2013-01-06 02:56:00
6:56 PM,-5.1,-9.0,83,29.48,10.0,Calm,Calm,-,N/A,,Clear,0,2013-01-06 03:56:00
7:56 PM,-5.1,-9.9,80,29.47,10.0,Calm,Calm,-,N/A,,Clear,0,2013-01-06 04:56:00
8:56 PM,-5.1,-9.9,80,29.46,10.0,Calm,Calm,-,N/A,,Clear,0,2013-01-06 05:56:00
9:56 PM,-6.0,-9.9,83,29.45,10.0,Calm,Calm,-,N/A,,Clear,0,2013-01-06 06:56:00
10:56 PM,-6.0,-11.0,79,29.44,10.0,Calm,Calm,-,N/A,,Clear,0,2013-01-06 07:56:00
11:56 PM,-6.0,-11.0,79,29.45,10.0,Calm,Calm,-,N/A,,Clear,0,2013-01-06 08:56:00